Location: Colonie
(42.7179°N, 73.8335°W)
Time: 09:38:55
(UTC+00:00)

Cosmos 1553 Rocket - Pass Details

Date: 29 October 2020
Orbit: 940 x 1009 km, 82.9° (Epoch: 23 November)

Event Time Altitude Azimuth Distance (km) Brightness Sun altitude
Rises 22:53:41 0° 180° (S) 3,712 7.1 -12.0°
Reaches altitude 10° 22:56:13 10° 179° (S) 2,760 6.5 -12.5°
Maximum altitude 23:02:32 76° 95° (E) 1,020 4.0 -13.6°
Drops below altitude 10° 23:08:48 10° 11° (N) 2,734 6.2 -14.8°
Sets 23:11:18 0° 10° (N) 3,675 6.9 -15.2°
